Regional Weather Roundup
Issued by NWS

Home | Current Version | Previous Version | Graphics & Text | Print | Product List | Glossary On
Versions: 1 2 3 4 5 6 7 8 9 10 11 12 13 14 15 16 17 18 19 20 21 22 23 24 25 26 27 28 29 30 31 32 33 34 35 36 37 38 39 40 41 42 43 44 45 46 47 48 49 50
000
ASUS45 KCYS 251810
RWRWY

WYOMING REGIONAL WEATHER ROUNDUP
NATIONAL WEATHER SERVICE CHEYENNE WY
1100 AM MST TUE NOV 25 2014

NOTE:  "FAIR" INDICATES FEW OR NO CLOUDS BELOW 12,000 FEET
WITH NO SIGNIFICANT WEATHER AND/OR OBSTRUCTIONS TO VISIBILITY.

WYZ001-251900-
YELLOWSTONE NATIONAL PARK

CITY           SKY/WX    TMP DP  RH WIND       PRES   REMARKS
LK YELLOWSTONE   N/A     25  21  85 W8        30.01R WCI  16
6HR MIN TEMP:  20; 6HR MAX TEMP:  25; 6HR PCP:  0.18;

W YELLOWSTONE  NOT AVBL

$$
WYZ002>013-054>058-071-098>099-251900-
NORTHERN WYOMING

CITY           SKY/WX    TMP DP  RH WIND       PRES   REMARKS
JACKSON        LGT SNOW  28  28 100 S12       30.08F VSB 3/4 WCI  18
CODY           CLOUDY    39  25  56 W8G24     29.86F WCI  34
GREYBULL       SNOW      28  27  96 CALM      29.93F VSB 1/2
6HR MIN TEMP:  25; 6HR MAX TEMP:  29; 6HR PCP:  0.22;

WORLAND        CLOUDY    29  25  85 SE7       29.92S WCI  22
6HR MIN TEMP:  24; 6HR MAX TEMP:  29; 6HR PCP: TRACE;

SHERIDAN       LGT SNOW  33  31  92 N9        29.85R FOG     WCI  25
6HR MIN TEMP:  32; 6HR MAX TEMP:  34; 6HR PCP:  0.09;

BUFFALO        LGT SNOW  33  30  88 S7        29.83F FOG     WCI  27
6HR MIN TEMP:  30; 6HR MAX TEMP:  36; 6HR PCP:  0.02;

GILLETTE       CLOUDY    33  30  88 W15       29.81S WCI  23
6HR MIN TEMP:  28; 6HR MAX TEMP:  33; 6HR PCP:  0.07;

HULETT           N/A    N/A N/A N/A MISG        N/A
NEWCASTLE      LGT SNOW  28  27  93 CALM      29.84S VSB 3/4

$$
WYZ014>020-022>026-101>103-251900-
CENTRAL WYOMING

CITY           SKY/WX    TMP DP  RH WIND       PRES   REMARKS
BIG PINEY      CLOUDY   N/A N/A N/A E8        30.13R
                                      6HR PCP: TRACE;

PINEDALE       LGT SNOW  28  28 100 NW6       30.13S VSB 3/4 WCI  22
DUBOIS         LGT SNOW  28  23  80 N22G31    29.95F WCI  15
LANDER         MOSUNNY   34  18  52 S3        29.92F
6HR MIN TEMP:  22; 6HR MAX TEMP:  35;

RIVERTON       CLOUDY    30  17  58 SW6       29.93S WCI  24
6HR MIN TEMP:  24; 6HR MAX TEMP:  35;

CASPER         CLOUDY    40  18  41 SW26G35   29.87F WCI  29
6HR MIN TEMP:  27; 6HR MAX TEMP:  40;

DOUGLAS        CLOUDY   N/A N/A N/A W21G30    29.86S

$$
WYZ021-027>030-104>119-251900-
SOUTHERN WYOMING

CITY           SKY/WX    TMP DP  RH WIND       PRES   REMARKS
EVANSTON       MOSUNNY   33  24  69 SW28G37   30.24R WCI  20
6HR MIN TEMP:  19; 6HR MAX TEMP:  33;

KEMMERER       LGT SNOW  32  27  80 W33G43    30.15F VSB 1   WCI  17
FORT BRIDGER   MOCLDY    35  24  64 W30G40    30.21F WCI  21
ROCK SPRINGS   PTSUNNY   33  21  61 W31G40    30.11F WCI  19
6HR MIN TEMP:  23; 6HR MAX TEMP:  33;

DIXON          CLOUDY    28  14  56 SW17G28   30.20F WCI  16
RAWLINS        CLOUDY    28  14  55 SW35G53   29.99F WCI  11
6HR MIN TEMP:  21; 6HR MAX TEMP:  28;

SARATOGA       CLOUDY    32  18  55 W40G51    30.04R WCI  16
LARAMIE        CLOUDY    30  16  56 W28G38    29.93S WCI  15
6HR MIN TEMP:  22; 6HR MAX TEMP:  30;

CHEYENNE       CLOUDY    36  16  44 W41G54    29.88R WCI  21
6HR MIN TEMP:  28; 6HR MAX TEMP:  36; 6HR PCP: TRACE;

TORRINGTON     CLOUDY    42  19  39 W26G37    29.83F
6HR MIN TEMP:  30; 6HR MAX TEMP:  42;

PINE BLUFFS    FAIR      41  18  38 W28G37    29.88F

$$


USA.gov is the U.S. government's official web portal to all federal, state and local government web resources and services.